Theta_e
333 329 321 312 300 297 292 296 300 302 303 307 311 313 312 314 312 305 325 334 340 342 345 346 347 347 345 344 343 340 340 340 340 342 342 344 342 340 338 338 340 340 338 338 337 337 338 337 336
329 328 313 306 296 291 292 299 302 305 307 311 315 314 313 310 321 324 327 336 340 342 344 344 344 346 343 343 343 342 342 340 340 342 342 344 342 339 339 338 338 337 337 337 336 334 335 335 336
326 321 307 301 294 292 293 300 304 306 309 308 308 315 314 315 322 325 331 337 339 341 343 343 344 346 344 343 342 342 341 341 342 342 342 342 344 341 339 337 337 336 336 336 335 333 333 334 335
321 314 308 296 294 295 300 303 306 306 306 309 312 310 317 324 325 328 335 336 337 340 342 341 344 346 344 344 343 342 340 341 341 341 344 342 345 342 341 338 336 336 335 335 335 333 333 333 333
317 309 301 296 295 297 301 306 307 304 304 305 309 309 312 326 329 330 333 335 336 337 340 342 343 344 344 343 342 342 341 340 340 339 339 337 342 342 341 340 336 335 335 334 334 333 331 331 331
310 308 300 294 294 299 302 306 307 303 304 304 312 311 313 326 327 327 331 334 337 336 339 341 337 339 341 342 342 342 341 339 339 339 339 337 339 337 337 339 337 335 334 333 333 332 330 329 328
307 303 299 299 296 299 303 306 303 303 303 303 313 310 312 321 327 328 326 333 335 337 338 338 339 338 335 338 338 339 339 339 338 338 337 336 336 336 335 334 337 336 334 332 331 331 329 328 327
309 305 299 300 299 299 303 306 305 305 306 311 314 310 310 321 328 329 326 328 331 334 335 335 336 337 336 334 332 334 336 336 336 335 332 330 330 331 331 329 331 336 335 333 332 330 329 328 325
313 300 298 302 301 301 304 304 306 308 309 313 316 314 318 326 328 325 323 320 326 331 332 333 334 335 334 334 330 330 331 331 331 330 327 324 323 324 324 325 331 334 335 335 333 331 329 328 325
306 299 301 304 304 302 305 305 305 304 306 310 315 321 325 326 324 322 319 317 320 323 327 332 332 334 334 337 331 330 330 328 327 326 324 324 323 323 324 322 325 331 331 334 334 332 330 324 316
307 301 307 306 308 307 306 304 306 304 301 309 312 318 322 321 320 320 319 317 318 320 323 329 331 332 333 335 331 328 327 326 325 323 322 323 323 321 321 320 322 322 321 322 327 327 323 319 317
301 306 306 308 309 308 305 307 304 303 304 309 312 323 322 320 320 321 320 318 316 318 321 323 330 330 331 333 334 333 329 326 324 323 322 320 319 318 318 318 319 318 319 317 317 317 319 319 317
298 302 305 308 308 307 308 305 304 305 307 312 320 322 321 321 320 321 322 320 317 317 320 320 324 327 329 332 332 332 331 328 327 325 324 322 319 317 317 317 316 316 316 316 314 314 314 315 315
300 301 302 304 306 308 306 305 307 309 308 310 317 319 320 321 321 320 320 321 319 318 320 322 320 324 327 330 330 331 331 330 328 326 326 324 321 318 317 316 315 314 316 315 315 315 315 316 317
303 298 301 301 303 305 307 302 304 310 310 309 310 315 318 320 321 320 322 322 322 321 320 322 322 321 324 327 327 329 330 330 328 326 325 326 323 320 320 317 316 316 315 316 314 315 315 315 315
298 297 291 299 302 304 304 294 301 307 307 308 308 306 308 317 320 323 323 324 324 321 319 321 324 322 322 325 327 328 328 329 329 327 325 325 325 321 318 318 316 316 315 315 314 314 313 315 313
294 287 291 294 300 300 301 296 302 305 304 303 303 303 307 307 308 317 322 324 324 323 319 319 322 321 321 322 325 327 328 326 328 327 326 324 324 323 321 319 318 315 314 313 314 313 313 311 312
289 288 290 289 294 294 295 297 300 303 302 301 301 301 302 307 310 311 312 318 324 323 320 319 321 321 320 321 321 323 324 325 325 324 326 324 324 324 320 319 318 316 314 313 312 313 312 312 313
294 291 289 291 296 293 292 293 299 301 299 299 299 299 300 303 309 310 311 313 315 319 320 318 319 321 320 318 317 318 319 322 321 322 324 324 324 323 321 321 318 316 316 315 314 313 312 312 311
292 289 288 292 296 294 293 292 297 298 299 300 301 301 300 301 305 308 307 308 311 314 320 321 319 320 320 320 320 320 319 320 322 322 322 323 323 322 322 321 319 318 317 314 314 313 311 312 311
293 290 289 290 293 293 293 290 293 298 300 301 302 303 304 302 303 305 305 304 305 308 313 320 323 321 321 322 319 318 318 317 317 318 320 322 322 322 321 322 321 319 318 317 315 314 313 312 311
290 295 294 292 290 284 290 281 288 293 295 297 300 301 303 305 305 304 304 304 304 306 307 314 320 322 322 321 320 319 319 317 319 320 320 321 321 322 321 322 321 320 319 318 318 317 315 314 312
292 296 294 292 288 285 285 284 285 290 291 295 298 298 300 303 304 305 304 306 307 308 309 311 315 319 322 321 322 320 319 320 320 319 318 319 321 322 322 321 321 320 320 319 319 318 317 317 315
296 293 292 290 288 283 286 286 282 288 292 294 295 296 298 299 301 303 305 305 305 302 302 303 306 306 314 320 321 320 319 321 321 319 318 319 320 321 322 322 321 321 320 320 319 319 318 318 318
296 291 281 281 280 278 285 285 287 289 292 293 294 296 297 299 300 300 300 302 299 299 300 302 302 302 303 304 305 308 312 316 319 321 322 320 320 319 320 322 322 321 321 320 320 319 319 319 317
293 291 280 274 277 278 283 281 285 292 295 295 296 295 298 296 297 298 297 298 298 299 299 299 300 300 301 301 301 302 302 304 307 312 318 321 323 324 322 321 321 323 322 322 321 320 320 320 319
291 289 291 281 273 276 279 283 289 291 292 293 294 295 295 296 296 296 297 297 297 298 298 299 299 300 300 301 301 301 302 302 302 303 306 310 313 317 320 322 321 321 322 323 322 320 320 320 320
294 295 285 283 273 271 278 278 281 285 289 291 291 293 294 294 295 296 296 296 297 297 297 298 299 300 300 301 301 301 301 301 302 302 303 303 305 307 310 313 318 321 321 321 322 321 321 320 320
291 290 289 289 281 276 273 278 286 290 290 292 291 292 294 294 294 294 293 295 295 295 296 297 298 299 299 300 300 299 299 300 301 301 301 302 304 305 306 308 310 314 319 321 320 320 321 321 320
295 291 290 284 280 282 280 281 288 290 290 290 291 293 293 295 295 290 292 293 293 294 295 295 297 297 298 298 297 297 298 298 298 299 300 301 301 302 303 304 305 307 310 314 319 320 322 321 320
Wind_Speed
9 10 2 5 6 7 1 1 2 2 3 1 2 9 8 3 1 3 1 9 13 10 8 9 12 13 14 13 12 11 11 12 12 12 12 13 16 15 15 13 12 13 13 14 13 13 14 14 13
8 4 5 3 7 4 3 1 4 3 5 8 8 5 5 2 2 7 6 11 13 11 8 8 12 14 14 14 12 11 10 11 12 11 12 10 16 15 14 12 13 11 13 13 12 12 11 11 11
7 1 5 5 4 5 5 3 6 2 4 2 4 6 4 4 3 8 8 13 13 11 9 10 12 13 14 14 13 12 11 10 12 10 12 9 16 15 14 13 12 11 12 11 11 11 10 9 9
5 5 5 6 4 1 7 6 5 5 2 4 5 6 2 3 7 6 14 13 12 11 11 12 14 15 14 13 13 12 12 10 10 9 13 7 14 15 14 14 11 10 10 10 10 10 9 7 7
5 4 5 4 3 2 3 6 7 4 2 3 4 3 2 6 1 12 9 10 11 8 7 10 13 14 14 14 14 13 12 9 9 10 10 11 12 13 13 12 12 10 9 8 8 8 6 5 6
5 3 5 2 1 2 2 6 8 4 3 4 6 4 4 2 8 7 8 8 9 8 5 6 7 9 11 13 14 13 14 12 10 8 8 11 8 9 10 11 12 11 9 8 8 7 5 3 3
5 4 0 2 3 2 5 6 7 6 5 3 9 5 1 2 4 8 7 8 8 9 8 6 7 7 8 8 9 11 12 12 10 9 7 7 8 8 7 8 11 12 9 8 7 6 5 3 1
4 4 2 4 3 1 0 2 4 5 3 3 6 6 5 7 7 7 7 5 7 7 7 8 6 6 6 6 9 9 10 10 9 8 7 6 7 8 9 6 9 9 12 8 7 6 5 3 2
3 4 1 4 2 4 3 4 2 1 5 4 4 4 3 12 8 6 5 4 5 5 7 6 6 6 6 6 6 9 11 10 10 8 6 5 2 4 7 6 6 4 7 10 8 7 5 3 3
5 4 4 2 1 1 4 3 2 3 3 3 3 5 6 10 8 8 6 7 6 7 6 7 7 7 7 6 6 5 5 4 4 5 6 4 4 4 4 5 6 7 5 6 8 7 6 4 2
4 6 4 2 1 1 3 4 4 7 2 5 7 8 8 6 7 8 6 7 11 8 6 7 7 7 8 6 4 2 2 3 3 5 5 4 4 3 3 2 3 3 6 3 4 4 3 4 4
3 3 2 5 1 1 2 3 2 2 2 4 8 14 10 10 13 14 11 9 7 8 10 10 10 9 9 5 6 7 4 3 3 4 6 4 3 3 4 3 4 4 3 5 4 3 4 5 6
3 3 3 4 4 2 0 1 2 4 4 4 10 11 12 10 10 9 9 7 8 9 11 10 11 11 10 10 8 8 7 6 6 5 6 4 4 4 4 4 4 4 3 4 4 4 4 5 6
1 4 2 3 3 3 4 3 2 6 5 4 9 11 10 12 15 9 9 12 11 11 13 11 10 10 10 10 11 9 8 8 7 7 8 9 6 5 5 4 5 4 4 4 4 5 5 5 4
3 3 2 2 3 4 4 5 9 9 4 4 8 8 10 14 12 17 18 17 17 15 13 14 14 11 12 12 10 8 8 8 8 8 10 11 8 8 8 6 5 5 4 6 4 5 4 4 4
4 4 3 5 7 5 7 11 7 7 6 10 7 8 9 12 15 15 16 17 14 13 15 15 13 14 13 11 9 8 7 8 8 7 6 10 10 8 7 6 6 5 5 4 4 5 5 5 5
3 4 4 5 8 5 7 9 7 9 8 9 9 8 9 10 10 12 12 14 13 15 14 15 14 14 14 11 9 9 9 8 7 5 7 7 9 9 9 7 6 6 5 5 6 6 5 4 5
6 5 4 6 5 6 6 12 9 5 7 9 8 9 8 8 16 10 11 14 15 11 12 13 13 15 13 9 7 5 6 7 6 7 8 8 9 11 9 7 8 6 5 6 5 8 5 5 6
6 5 6 3 6 3 8 11 17 9 6 9 9 8 9 10 9 8 8 9 7 5 8 12 13 15 10 8 6 7 9 7 6 6 9 10 10 10 10 9 8 7 9 10 10 8 9 7 3
4 5 4 5 4 5 6 8 11 7 7 9 10 10 10 7 9 11 9 6 7 8 12 12 15 13 13 10 8 6 7 7 7 5 6 9 9 9 10 10 9 9 8 9 10 10 6 7 6
10 7 4 4 3 3 4 10 8 10 6 8 8 11 13 14 12 12 9 7 5 7 9 10 12 13 14 12 4 3 2 0 2 4 5 8 10 10 11 12 11 9 9 10 10 10 12 10 4
14 7 7 4 2 5 1 9 6 6 10 7 9 13 16 18 15 10 7 5 6 7 6 8 8 9 9 8 8 9 9 9 8 7 6 7 9 12 12 14 13 13 9 12 12 10 12 10 12
7 8 8 4 2 2 2 5 7 2 6 12 14 12 13 15 15 12 6 6 4 4 4 1 6 7 7 8 10 8 7 6 5 3 6 8 8 12 14 14 15 13 11 13 14 13 12 12 12
7 6 4 4 3 10 10 8 5 7 11 7 6 9 10 7 6 8 6 7 6 5 6 6 8 7 4 4 6 6 6 7 5 5 6 7 6 8 12 14 14 15 13 15 14 15 16 14 14
13 11 2 3 5 9 3 10 16 5 6 8 9 7 6 8 9 8 8 7 7 7 6 6 7 6 6 7 6 4 3 5 7 8 7 7 6 6 10 12 14 13 15 15 15 15 15 15 15
19 14 7 9 7 4 5 11 8 10 9 8 11 8 5 6 6 8 7 7 7 7 6 6 6 5 5 4 3 2 1 2 3 4 4 4 5 7 8 10 13 15 15 15 15 13 13 15 15
8 12 8 6 3 3 6 7 10 8 6 8 5 6 7 9 7 9 7 6 6 6 5 5 5 4 5 5 5 6 5 5 4 6 5 4 5 5 7 7 12 14 15 16 16 13 15 16 17
13 10 6 2 5 5 4 6 9 3 9 7 6 7 7 4 7 7 6 6 5 5 4 5 5 5 4 5 5 4 5 5 5 5 6 6 7 6 7 8 9 10 13 14 15 14 15 16 15
8 12 4 6 6 6 2 9 9 15 12 14 10 9 9 8 8 7 7 6 7 5 5 5 5 6 5 5 4 6 6 6 5 5 5 6 7 8 9 9 9 10 11 11 13 16 17 18 18
16 11 14 11 12 8 1 12 3 9 8 8 8 9 9 9 9 7 8 8 7 7 6 6 5 5 4 4 5 5 5 5 5 5 5 6 7 8 9 10 10 11 11 12 13 14 14 17 19
Wind_Direction
319 307 98 44 57 66 118 87 122 86 51 10 72 102 122 56 94 193 159 150 137 137 142 141 131 126 126 123 118 117 115 115 118 117 111 112 110 109 108 104 97 94 95 91 92 98 100 97 91
312 321 44 82 86 81 282 298 115 151 173 116 91 101 59 92 121 116 103 161 139 139 139 140 137 137 136 132 126 123 120 121 127 129 118 119 116 115 113 103 98 101 98 97 95 97 101 99 86
320 82 79 87 110 153 163 213 158 158 136 92 90 51 118 154 115 158 147 152 144 144 146 147 143 144 141 135 132 133 128 129 132 146 127 122 132 124 118 113 115 111 109 107 105 103 102 89 70
355 8 35 74 108 86 142 194 171 127 105 84 123 67 26 255 156 157 148 149 148 154 154 156 151 150 146 143 140 134 138 137 139 140 125 134 127 129 125 121 114 114 114 114 113 111 110 92 68
34 51 41 72 5 71 105 177 150 131 132 105 125 159 34 339 204 129 143 153 146 149 154 157 156 155 152 150 147 144 142 144 140 147 139 141 127 130 129 124 126 123 119 118 118 116 112 93 74
27 78 48 55 137 96 181 176 134 141 172 138 74 100 178 277 139 132 133 142 137 133 139 152 158 155 157 157 156 154 152 151 154 149 158 156 145 154 146 142 134 135 136 138 137 131 123 107 78
93 60 294 329 178 123 181 157 152 154 148 165 149 110 305 273 176 123 138 133 139 145 148 154 162 166 162 163 162 158 155 155 160 159 171 154 158 147 140 161 152 145 150 152 149 148 147 145 102
101 91 54 335 279 231 210 102 110 131 183 110 138 170 197 220 187 119 108 134 139 151 159 165 161 165 166 169 169 163 160 162 165 170 174 158 160 158 145 181 181 161 157 161 161 166 175 186 205
78 56 68 342 28 280 316 105 355 57 98 57 9 154 221 154 142 122 117 132 149 167 171 170 168 171 170 173 181 173 172 172 169 167 176 167 173 169 164 173 188 191 170 168 176 180 190 215 256
94 121 189 234 189 306 314 65 126 94 107 51 29 22 94 134 162 159 171 174 183 188 191 177 178 181 179 184 173 179 176 171 172 179 182 177 184 198 179 194 200 181 189 178 191 195 199 213 264
163 175 189 214 257 51 20 10 304 126 221 199 196 173 159 154 174 179 197 193 190 183 183 185 183 185 183 190 173 164 160 169 187 192 189 192 191 202 208 205 211 186 196 197 205 200 204 220 226
168 232 141 175 342 46 106 303 10 340 178 283 220 160 165 178 188 192 198 202 191 195 193 186 190 185 189 175 184 191 186 185 191 197 203 191 202 208 208 202 207 202 198 208 208 208 221 222 227
168 228 139 143 152 164 211 235 284 269 232 37 126 155 178 187 200 209 209 210 200 204 209 197 191 192 189 181 187 193 194 193 196 197 202 190 201 202 198 218 205 213 205 206 220 229 230 231 230
125 188 287 125 216 217 178 245 105 277 119 141 160 187 192 194 198 199 207 214 213 212 209 206 196 196 188 192 189 192 192 195 193 201 204 198 193 191 198 212 215 222 215 216 213 215 226 238 235
144 135 343 228 171 244 138 279 223 228 276 186 211 215 205 213 198 205 207 210 209 212 204 203 202 194 195 199 195 194 196 195 204 204 203 203 196 199 198 207 214 217 212 222 228 245 242 248 243
145 74 143 268 165 243 121 264 250 234 236 267 243 237 236 233 218 217 214 216 211 208 205 201 202 204 200 200 199 202 195 201 210 208 205 205 205 197 201 206 216 208 205 212 215 223 239 238 229
329 187 182 291 208 159 181 253 269 214 204 248 264 262 244 243 245 238 224 220 213 207 201 202 199 204 206 202 198 206 206 209 212 206 210 203 207 203 206 213 217 197 209 211 216 231 216 220 236
187 200 214 201 231 195 209 250 253 221 174 226 241 257 271 256 249 231 228 221 223 205 200 199 197 202 201 201 200 208 210 219 207 208 208 200 211 207 204 215 215 195 205 219 215 230 217 215 231
159 185 201 232 249 204 229 235 258 233 234 253 258 258 261 261 255 250 248 221 209 199 189 192 192 204 189 192 192 215 219 221 219 218 216 213 217 210 209 219 216 205 214 221 216 222 227 240 216
184 181 225 289 286 165 272 252 248 216 217 213 232 260 252 254 261 251 233 243 206 209 205 198 202 195 197 198 207 207 199 223 224 208 210 219 217 215 217 225 226 218 224 226 220 218 227 238 178
224 200 183 208 327 312 335 280 237 265 214 217 229 238 251 240 241 251 248 226 226 224 212 208 214 203 201 201 150 108 73 328 184 211 220 217 212 214 216 223 227 224 219 233 229 223 225 237 213
216 165 187 203 160 240 24 278 273 251 263 236 238 237 242 243 240 245 237 219 223 247 233 217 208 199 203 184 180 191 205 218 224 221 220 221 205 220 220 224 225 226 221 229 231 222 223 223 238
214 168 182 160 152 33 240 295 274 300 279 266 250 248 243 238 234 234 201 189 135 83 57 135 184 185 185 180 197 200 211 222 240 213 218 224 216 217 220 222 226 227 227 231 231 228 218 223 229
143 91 76 87 122 254 214 196 227 181 211 245 248 260 246 250 181 168 132 109 98 90 73 61 73 55 76 159 186 187 208 233 242 239 233 239 232 228 227 227 227 229 228 230 231 230 226 223 230
182 149 165 195 206 235 228 189 255 270 258 230 262 251 209 178 163 142 131 128 120 95 78 72 75 73 72 84 91 114 206 236 239 250 252 249 244 236 237 230 231 230 231 231 232 232 230 227 229
195 177 158 183 209 224 129 229 254 235 256 236 237 238 165 128 120 128 135 136 132 116 105 90 78 69 46 56 61 72 285 254 260 263 273 269 261 260 247 241 239 239 237 235 233 237 236 234 233
176 207 171 104 2 68 215 292 302 249 263 226 237 145 181 155 155 150 146 137 131 111 100 101 92 74 56 47 39 30 20 360 312 301 290 279 279 285 288 261 247 243 241 238 237 236 237 236 235
180 155 173 193 165 241 251 256 230 235 238 248 204 187 195 179 156 156 152 138 129 131 130 103 90 82 64 53 46 33 10 2 348 339 332 318 303 293 288 289 285 262 252 247 243 244 243 240 239
159 195 176 170 160 184 237 252 204 211 209 225 208 203 201 196 180 170 162 159 154 131 126 114 103 101 80 66 47 29 12 3 2 357 338 333 324 318 311 302 295 289 278 256 247 248 251 249 248
204 192 192 204 212 237 130 250 164 220 191 200 214 213 200 186 181 177 174 171 174 168 157 145 127 107 98 77 49 29 10 1 2 351 334 331 326 322 315 311 303 294 287 281 274 264 252 251 251